GW7187 Weather Reports


time (UTC)temp
C
wind
direction
speed
KPH
gust
KPH
rain 1hr
cm
rain 24hr
cm
rain mn
cm
humidity
%
barometer
mb
20260509143748 28 252 0.0 0.0 0.00 0.00 0.00 32 1014.9
20260509143247 28 341 0.0 0.0 0.00 0.00 0.00 31 1015.2
20260509142747 29 324 0.0 0.0 0.00 0.00 0.00 32 1014.9
20260509142247 28 294 4.8 4.8 0.00 0.00 0.00 30 1014.9
20260509141747 30 325 1.6 1.6 0.00 0.00 0.00 32 1015.2
20260509141247 29 313 0.0 0.0 0.00 0.00 0.00 32 1014.9
20260509140749 29 344 4.8 4.8 0.00 0.00 0.00 33 1015.2
20260509140247 28 48 3.2 3.2 0.00 0.00 0.00 32 1015.2
20260509135747 28 30 0.0 0.0 0.00 0.00 0.00 31 1015.2
20260509135249 30 7 0.0 0.0 0.00 0.00 0.00 31 1015.2
20260509134747 28 66 1.6 1.6 0.00 0.00 0.00 32 1015.2
20260509134248 30 317 3.2 3.2 0.00 0.00 0.00 33 1015.2
20260509133748 29 110 0.0 0.0 0.00 0.00 0.00 32 1015.2
20260509133247 29 84 3.2 3.2 0.00 0.00 0.00 32 1015.6
20260509132748 28 90 0.0 0.0 0.00 0.00 0.00 33 1015.2
20260509132248 29 66 1.6 1.6 0.00 0.00 0.00 32 1015.2
20260509131748 29 340 1.6 1.6 0.00 0.00 0.00 32 1015.2
20260509131247 29 32 1.6 1.6 0.00 0.00 0.00 32 1015.2
20260509130747 28 96 3.2 3.2 0.00 0.00 0.00 35 1015.6
20260509130247 28 240 3.2 3.2 0.00 0.00 0.00 33 1015.2
20260509125748 28 0 0.0 0.0 0.00 0.00 0.00 32 1015.2
20260509125251 29 84 0.0 0.0 0.00 0.00 0.00 32 1015.6
20260509124748 30 96 0.0 0.0 0.00 0.00 0.00 32 1015.9
20260509124247 29 174 3.2 3.2 0.00 0.00 0.00 31 1015.6
20260509123747 30 83 1.6 1.6 0.00 0.00 0.00 31 1015.2
20260509123247 29 133 1.6 1.6 0.00 0.00 0.00 32 1015.9
20260509122747 29 132 3.2 3.2 0.00 0.00 0.00 33 1015.9
20260509122247 29 258 1.6 1.6 0.00 0.00 0.00 32 1015.9
20260509121748 29 84 3.2 3.2 0.00 0.00 0.00 32 1015.9
20260509121248 30 257 0.0 0.0 0.00 0.00 0.00 32 1015.9
20260509120747 29 354 1.6 1.6 0.00 0.00 0.00 34 1016.3
20260509120247 28 114 1.6 1.6 0.00 0.00 0.00 33 1015.9
20260509115748 27 238 6.4 6.4 0.00 0.00 0.00 34 1016.3
20260509115247 27 232 4.8 4.8 0.00 0.00 0.00 34 1016.3
20260509114747 27 218 4.8 4.8 0.00 0.00 0.00 34 1016.3
20260509113851 27 186 4.8 4.8 0.00 0.00 0.00 36 1016.3
20260509113247 27 340 1.6 1.6 0.00 0.00 0.00 35 1016.3
20260509112747 27 258 6.4 6.4 0.00 0.00 0.00 35 1016.6
20260509112247 27 253 8.0 9.7 0.00 0.00 0.00 34 1016.6
20260509111747 28 133 4.8 4.8 0.00 0.00 0.00 33 1016.3
20260509111247 28 120 4.8 4.8 0.00 0.00 0.00 32 1016.6
20260509110747 27 144 3.2 3.2 0.00 0.00 0.00 34 1016.6
20260509110247 27 144 3.2 3.2 0.00 0.00 0.00 34 1016.6
20260509105747 27 162 4.8 4.8 0.00 0.00 0.00 35 1016.6
20260509105248 27 84 1.6 1.6 0.00 0.00 0.00 35 1016.9
20260509104748 27 298 6.4 6.4 0.00 0.00 0.00 35 1016.9
20260509104248 27 276 6.4 6.4 0.00 0.00 0.00 33 1016.9
20260509103747 27 248 6.4 8.0 0.00 0.00 0.00 36 1016.9
20260509103249 27 126 6.4 6.4 0.00 0.00 0.00 38 1016.9
20260509102747 27 120 8.0 8.0 0.00 0.00 0.00 37 1016.9
20260509102247 27 191 3.2 3.2 0.00 0.00 0.00 38 1016.9
20260509101747 26 216 0.0 0.0 0.00 0.00 0.00 37 1017.3
20260509101248 26 168 8.0 9.7 0.00 0.00 0.00 38 1017.3
20260509100747 27 205 4.8 4.8 0.00 0.00 0.00 37 1017.3
20260509100247 26 71 6.4 6.4 0.00 0.00 0.00 37 1017.3
20260509095748 26 168 3.2 3.2 0.00 0.00 0.00 35 1017.3
20260509095247 27 138 3.2 3.2 0.00 0.00 0.00 36 1017.3
20260509094747 27 156 4.8 4.8 0.00 0.00 0.00 34 1017.6
20260509094247 27 156 3.2 3.2 0.00 0.00 0.00 34 1017.6
20260509093748 27 185 3.2 3.2 0.00 0.00 0.00 34 1017.6
20260509093247 26 282 0.0 0.0 0.00 0.00 0.00 37 1017.6
20260509092747 25 126 3.2 3.2 0.00 0.00 0.00 38 1017.6
20260509092247 25 186 8.0 9.7 0.00 0.00 0.00 36 1017.9
20260509091747 26 277 6.4 6.4 0.00 0.00 0.00 37 1017.6
20260509091247 25 264 6.4 6.4 0.00 0.00 0.00 41 1017.6
20260509090747 27 245 4.8 4.8 0.00 0.00 0.00 38 1017.6
20260509090247 26 108 1.6 1.6 0.00 0.00 0.00 37 1017.9
20260509085747 26 180 6.4 6.4 0.00 0.00 0.00 39 1017.9
20260509085248 26 172 8.0 8.0 0.00 0.00 0.00 37 1017.9
20260509084750 26 139 4.8 4.8 0.00 0.00 0.00 38 1017.9
20260509084248 26 78 0.0 0.0 0.00 0.00 0.00 40 1017.9
20260509083747 26 54 0.0 0.0 0.00 0.00 0.00 39 1017.9
20260509083247 27 322 1.6 1.6 0.00 0.00 0.00 39 1017.9
20260509082747 26 115 3.2 3.2 0.00 0.00 0.00 38 1018.3
20260509082247 26 84 0.0 0.0 0.00 0.00 0.00 40 1018.3
20260509081748 25 114 0.0 0.0 0.00 0.00 0.00 42 1018.3
20260509081248 25 81 3.2 3.2 0.00 0.00 0.00 40 1017.9
20260509080747 26 278 0.0 0.0 0.00 0.00 0.00 40 1018.3
20260509080247 26 88 0.0 0.0 0.00 0.00 0.00 40 1018.3
20260509075747 26 166 0.0 0.0 0.00 0.00 0.00 41 1018.3
20260509075247 26 114 1.6 1.6 0.00 0.00 0.00 40 1018.6
20260509074747 25 108 0.0 0.0 0.00 0.00 0.00 41 1018.6
20260509074247 25 229 0.0 0.0 0.00 0.00 0.00 44 1018.6
20260509073748 25 191 1.6 1.6 0.00 0.00 0.00 47 1018.6
20260509073247 25 139 3.2 3.2 0.00 0.00 0.00 45 1018.6
20260509072747 24 213 3.2 3.2 0.00 0.00 0.00 50 1018.3
20260509072247 23 120 1.6 1.6 0.00 0.00 0.00 49 1018.6
20260509071748 23 54 1.6 1.6 0.00 0.00 0.00 50 1018.6
20260509071247 23 180 3.2 3.2 0.00 0.00 0.00 49 1019.0
20260509070747 23 141 3.2 3.2 0.00 0.00 0.00 49 1019.0
20260509070248 23 204 4.8 4.8 0.00 0.00 0.00 51 1018.6
20260509065747 23 141 3.2 3.2 0.00 0.00 0.00 49 1018.6
20260509065247 23 108 3.2 3.2 0.00 0.00 0.00 49 1018.6
20260509064747 22 144 1.6 1.6 0.00 0.00 0.00 50 1018.6
20260509064247 22 144 1.6 1.6 0.00 0.00 0.00 50 1018.6
20260509063748 22 156 4.8 4.8 0.00 0.00 0.00 51 1018.6
20260509063248 22 97 0.0 0.0 0.00 0.00 0.00 49 1018.6
20260509062747 22 154 3.2 3.2 0.00 0.00 0.00 49 1018.6
20260509062247 22 104 1.6 1.6 0.00 0.00 0.00 49 1018.6
20260509061747 22 163 3.2 3.2 0.00 0.00 0.00 48 1019.0
20260509061248 22 122 3.2 3.2 0.00 0.00 0.00 50 1019.0
20260509060749 22 96 0.0 0.0 0.00 0.00 0.00 49 1019.0
20260509060247 22 84 0.0 0.0 0.00 0.00 0.00 50 1019.0
20260509055747 21 161 0.0 0.0 0.00 0.00 0.00 51 1019.0
20260509055251 21 108 0.0 0.0 0.00 0.00 0.00 51 1019.0
20260509054747 21 72 0.0 0.0 0.00 0.00 0.00 53 1019.0
20260509054248 20 117 0.0 0.0 0.00 0.00 0.00 55 1019.0
20260509053747 20 72 0.0 0.0 0.00 0.00 0.00 51 1019.0
20260509053247 20 102 1.6 1.6 0.00 0.00 0.00 54 1019.0
20260509052747 20 190 1.6 1.6 0.00 0.00 0.00 59 1019.0
20260509052248 19 144 0.0 0.0 0.00 0.00 0.00 59 1019.0
20260509051748 18 124 1.6 1.6 0.00 0.00 0.00 63 1019.0
20260509051248 18 132 1.6 1.6 0.00 0.00 0.00 63 1019.0
20260509050752 18 106 0.0 0.0 0.00 0.00 0.00 62 1019.0
20260509050247 18 348 0.0 0.0 0.00 0.00 0.00 63 1019.0
20260509045747 17 234 0.0 0.0 0.00 0.00 0.00 65 1019.0
20260509045247 17 90 0.0 0.0 0.00 0.00 0.00 63 1019.3
20260509044747 17 107 0.0 0.0 0.00 0.00 0.00 65 1019.3
20260509044247 17 135 1.6 1.6 0.00 0.00 0.00 67 1019.3
20260509043747 17 211 0.0 0.0 0.00 0.00 0.00 67 1019.3
20260509043248 17 276 0.0 0.0 0.00 0.00 0.00 66 1019.3
20260509042747 16 126 0.0 0.0 0.00 0.00 0.00 65 1019.3
20260509042247 16 98 0.0 0.0 0.00 0.00 0.00 65 1019.3
20260509041747 15 108 0.0 0.0 0.00 0.00 0.00 68 1019.3
20260509041248 15 85 0.0 0.0 0.00 0.00 0.00 69 1019.0
20260509040748 15 36 0.0 0.0 0.00 0.00 0.00 70 1019.3
20260509040247 15 0 0.0 0.0 0.00 0.00 0.00 71 1019.3
20260509035747 14 30 0.0 0.0 0.00 0.00 0.00 72 1019.0
20260509035247 15 60 0.0 0.0 0.00 0.00 0.00 72 1019.3
20260509034747 15 34 0.0 0.0 0.00 0.00 0.00 71 1019.0
20260509034248 14 54 0.0 0.0 0.00 0.00 0.00 73 1019.0
20260509033747 13 160 0.0 0.0 0.00 0.00 0.00 74 1019.0
20260509033248 13 6 1.6 1.6 0.00 0.00 0.00 74 1019.0
20260509032747 13 54 0.0 0.0 0.00 0.00 0.00 74 1019.0
20260509032247 13 96 1.6 1.6 0.00 0.00 0.00 75 1019.0
20260509031747 13 36 0.0 0.0 0.00 0.00 0.00 76 1018.6
20260509031248 13 6 0.0 0.0 0.00 0.00 0.00 76 1018.6
20260509030748 12 36 0.0 0.0 0.00 0.00 0.00 77 1018.6
20260509030247 12 84 0.0 0.0 0.00 0.00 0.00 79 1018.3
20260509025747 12 90 0.0 0.0 0.00 0.00 0.00 80 1018.6
20260509025249 12 72 0.0 0.0 0.00 0.00 0.00 80 1018.6
20260509024748 12 108 0.0 0.0 0.00 0.00 0.00 81 1018.6
20260509024247 12 102 0.0 0.0 0.00 0.00 0.00 81 1018.6
20260509023748 12 150 1.6 1.6 0.00 0.00 0.00 80 1018.6
20260509023247 12 216 0.0 0.0 0.00 0.00 0.00 79 1018.3
20260509022747 12 174 0.0 0.0 0.00 0.00 0.00 80 1018.6
20260509022247 12 132 0.0 0.0 0.00 0.00 0.00 79 1018.3
20260509021748 12 168 0.0 0.0 0.00 0.00 0.00 78 1018.3
20260509021247 12 197 0.0 0.0 0.00 0.00 0.00 78 1018.3
20260509020749 12 78 0.0 0.0 0.00 0.00 0.00 78 1018.3
20260509020248 12 246 0.0 0.0 0.00 0.00 0.00 78 1018.3
20260509015747 13 138 0.0 0.0 0.00 0.00 0.00 77 1018.3
20260509015249 13 90 0.0 0.0 0.00 0.00 0.00 77 1018.3
20260509014754 13 131 0.0 0.0 0.00 0.00 0.00 76 1018.3
20260509014247 13 96 3.2 3.2 0.00 0.00 0.00 76 1018.3
20260509013747 13 84 0.0 0.0 0.00 0.00 0.00 75 1018.3
20260509013247 13 102 0.0 0.0 0.00 0.00 0.00 76 1018.3
20260509012747 13 119 0.0 0.0 0.00 0.00 0.00 75 1018.3
20260509012248 13 142 0.0 0.0 0.00 0.00 0.00 75 1018.3
20260509011747 13 294 0.0 0.0 0.00 0.00 0.00 76 1018.3
20260509011247 13 60 0.0 0.0 0.00 0.00 0.00 76 1017.9
20260509010747 13 113 0.0 0.0 0.00 0.00 0.00 75 1017.9
20260509010247 13 72 0.0 0.0 0.00 0.00 0.00 75 1017.9
20260509005747 13 96 0.0 0.0 0.00 0.00 0.00 76 1018.3
20260509005247 13 234 0.0 0.0 0.00 0.00 0.00 75 1017.9
20260509004747 13 355 0.0 0.0 0.00 0.00 0.00 76 1017.9
20260509004248 13 144 0.0 0.0 0.00 0.00 0.00 76 1017.9
20260509003748 13 132 0.0 0.0 0.00 0.00 0.00 75 1017.9
20260509003248 13 90 0.0 0.0 0.00 0.00 0.00 74 1018.3
20260509002747 13 78 0.0 0.0 0.00 0.00 0.00 74 1018.3
20260509002247 13 0 0.0 0.0 0.00 0.00 0.00 75 1018.3
20260509001747 13 6 0.0 0.0 0.00 0.00 0.00 75 1018.3
20260509001247 13 48 3.2 3.2 0.00 0.00 0.00 75 1018.3
20260509000747 13 30 3.2 3.2 0.00 0.00 0.00 75 1018.3
20260509000248 13 287 0.0 0.0 0.00 0.00 0.00 77 1017.9
20260508235747 13 150 0.0 0.0 0.00 0.00 0.00 78 1017.9
20260508235247 13 228 0.0 0.0 0.00 0.00 0.00 79 1018.3
20260508234748 13 96 0.0 0.0 0.00 0.00 0.00 79 1017.9
20260508234247 13 170 0.0 0.0 0.00 0.00 0.00 77 1017.9
20260508233748 13 120 0.0 0.0 0.00 0.00 0.00 76 1018.3
20260508233248 14 168 0.0 0.0 0.00 0.00 0.00 76 1018.3
20260508232748 14 96 0.0 0.0 0.00 0.00 0.00 76 1018.3
20260508232247 14 84 0.0 0.0 0.00 0.00 0.00 76 1018.3
20260508231748 14 162 0.0 0.0 0.00 0.00 0.00 77 1018.3
20260508231247 14 150 0.0 0.0 0.00 0.00 0.00 76 1018.3
20260508230748 14 84 0.0 0.0 0.00 0.00 0.00 75 1017.9
20260508230248 14 66 0.0 0.0 0.00 0.00 0.00 75 1018.3
20260508225748 14 150 0.0 0.0 0.00 0.00 0.00 77 1018.3
20260508225247 14 186 0.0 0.0 0.00 0.00 0.00 76 1018.3
20260508224747 15 260 0.0 0.0 0.00 0.00 0.00 75 1018.3
20260508224247 15 84 0.0 0.0 0.00 0.00 0.00 74 1018.3
20260508223747 14 197 0.0 0.0 0.00 0.00 0.00 76 1018.3
20260508223247 14 170 0.0 0.0 0.00 0.00 0.00 76 1018.6
20260508222748 15 246 0.0 0.0 0.00 0.00 0.00 76 1018.3
20260508222248 15 276 0.0 0.0 0.00 0.00 0.00 77 1018.6
20260508221747 15 132 0.0 0.0 0.00 0.00 0.00 77 1018.3
20260508221247 15 162 0.0 0.0 0.00 0.00 0.00 77 1018.3
20260508220747 15 202 0.0 0.0 0.00 0.00 0.00 76 1018.6
20260508215747 15 258 0.0 0.0 0.00 0.00 0.00 76 1018.6
20260508215247 15 258 0.0 0.0 0.00 0.00 0.00 76 1018.6
20260508214747 15 258 0.0 0.0 0.00 0.00 0.00 76 1018.6
20260508214249 15 258 0.0 0.0 0.00 0.00 0.00 76 1018.6
20260508213747 15 186 0.0 0.0 0.00 0.00 0.00 75 1018.6
20260508212249 16 125 0.0 0.0 0.00 0.00 0.00 73 1018.6
20260508211748 16 125 0.0 0.0 0.00 0.00 0.00 73 1018.6
20260508211247 16 125 0.0 0.0 0.00 0.00 0.00 73 1018.6
20260508210748 16 60 1.6 1.6 0.00 0.00 0.00 72 1019.0
20260508210248 16 60 1.6 1.6 0.00 0.00 0.00 72 1019.0
20260508205748 16 90 0.0 0.0 0.00 0.00 0.00 73 1019.0
20260508205247 16 102 0.0 0.0 0.00 0.00 0.00 73 1019.0
20260508204747 16 36 0.0 0.0 0.00 0.00 0.00 72 1019.0
20260508204247 16 228 0.0 0.0 0.00 0.00 0.00 73 1019.0
20260508203748 17 264 0.0 0.0 0.00 0.00 0.00 74 1019.0
20260508203247 17 78 0.0 0.0 0.00 0.00 0.00 74 1019.0
20260508202747 17 234 0.0 0.0 0.00 0.00 0.00 72 1019.0
20260508202247 17 192 0.0 0.0 0.00 0.00 0.00 72 1019.0
20260508201748 17 192 0.0 0.0 0.00 0.00 0.00 72 1019.0
20260508201247 17 180 0.0 0.0 0.00 0.00 0.00 72 1019.0
20260508200748 17 180 0.0 0.0 0.00 0.00 0.00 72 1019.0
20260508200248 17 126 0.0 0.0 0.00 0.00 0.00 70 1019.0
20260508195747 17 113 0.0 0.0 0.00 0.00 0.00 69 1019.0
20260508195248 18 102 0.0 0.0 0.00 0.00 0.00 68 1019.0
20260508194747 17 126 0.0 0.0 0.00 0.00 0.00 67 1019.0
20260508194247 18 90 0.0 0.0 0.00 0.00 0.00 67 1019.0
20260508193747 18 102 3.2 3.2 0.00 0.00 0.00 66 1019.0
20260508193248 18 102 3.2 3.2 0.00 0.00 0.00 66 1019.0
20260508192747 18 54 0.0 0.0 0.00 0.00 0.00 69 1019.0
20260508192248 18 60 0.0 0.0 0.00 0.00 0.00 68 1019.0
20260508191747 18 66 0.0 0.0 0.00 0.00 0.00 69 1019.0
20260508191248 18 42 0.0 0.0 0.00 0.00 0.00 69 1019.0
20260508190750 18 60 0.0 0.0 0.00 0.00 0.00 67 1019.0
20260508190247 18 60 0.0 0.0 0.00 0.00 0.00 67 1019.0
20260508185748 18 60 0.0 0.0 0.00 0.00 0.00 67 1018.6
20260508185248 18 84 0.0 0.0 0.00 0.00 0.00 67 1019.0
20260508184747 18 50 0.0 0.0 0.00 0.00 0.00 66 1018.6
20260508184247 19 124 0.0 0.0 0.00 0.00 0.00 67 1019.0
20260508183747 19 112 0.0 0.0 0.00 0.00 0.00 67 1018.6
20260508183248 19 184 0.0 0.0 0.00 0.00 0.00 68 1018.6
20260508182749 19 40 0.0 0.0 0.00 0.00 0.00 67 1018.6
20260508182248 19 80 0.0 0.0 0.00 0.00 0.00 67 1018.6
20260508181747 19 72 0.0 0.0 0.00 0.00 0.00 65 1018.3
20260508181249 20 102 0.0 0.0 0.00 0.00 0.00 64 1018.6
20260508180747 20 114 1.6 1.6 0.00 0.00 0.00 66 1018.3
20260508180248 20 113 0.0 0.0 0.00 0.00 0.00 67 1018.3
20260508175747 20 34 0.0 0.0 0.00 0.00 0.00 66 1018.3
20260508175248 20 34 0.0 0.0 0.00 0.00 0.00 66 1018.3
20260508174748 20 91 0.0 0.0 0.00 0.00 0.00 66 1018.3
20260508174247 20 90 0.0 0.0 0.00 0.00 0.00 65 1017.9
20260508173748 20 90 0.0 0.0 0.00 0.00 0.00 65 1017.9
20260508173251 20 114 0.0 0.0 0.00 0.00 0.00 64 1017.9
20260508172749 20 97 0.0 0.0 0.00 0.00 0.00 65 1017.9
20260508172247 20 106 0.0 0.0 0.00 0.00 0.00 64 1017.9
20260508171747 20 306 0.0 0.0 0.00 0.00 0.00 66 1017.6
20260508171247 21 48 0.0 0.0 0.00 0.00 0.00 64 1017.6
20260508170748 21 96 0.0 0.0 0.00 0.00 0.00 62 1017.6
20260508170247 21 136 0.0 0.0 0.00 0.00 0.00 63 1017.3
20260508165747 21 282 0.0 0.0 0.00 0.00 0.00 59 1017.6
20260508165248 21 34 0.0 0.0 0.00 0.00 0.00 58 1017.3
20260508164748 21 85 3.2 3.2 0.00 0.00 0.00 58 1017.3
20260508164252 22 209 0.0 0.0 0.00 0.00 0.00 58 1017.3
20260508163748 22 108 0.0 0.0 0.00 0.00 0.00 59 1017.3
20260508163247 22 113 0.0 0.0 0.00 0.00 0.00 58 1016.9
20260508162747 23 190 0.0 0.0 0.00 0.00 0.00 56 1017.3
20260508162248 24 345 0.0 0.0 0.00 0.00 0.00 49 1017.3
20260508161748 25 342 0.0 0.0 0.00 0.00 0.00 43 1017.3
20260508161248 25 323 3.2 3.2 0.00 0.00 0.00 43 1017.3
20260508160747 25 322 3.2 3.2 0.00 0.00 0.00 43 1017.3
20260508160248 25 330 0.0 0.0 0.00 0.00 0.00 42 1017.3
20260508155748 25 330 4.8 4.8 0.00 0.00 0.00 42 1017.3
20260508155248 25 343 3.2 3.2 0.00 0.00 0.00 43 1017.3
20260508154748 25 330 8.0 8.0 0.00 0.00 0.00 43 1016.9
20260508154247 25 342 4.8 4.8 0.00 0.00 0.00 43 1016.9
20260508153750 25 3 4.8 4.8 0.00 0.00 0.00 42 1016.9
20260508153247 26 345 8.0 8.0 0.00 0.00 0.00 43 1016.9
20260508152748 26 277 1.6 1.6 0.00 0.00 0.00 42 1016.9
20260508152247 27 311 3.2 3.2 0.00 0.00 0.00 37 1016.9
20260508151748 26 8 1.6 1.6 0.00 0.00 0.00 36 1016.6
20260508151248 26 354 1.6 1.6 0.00 0.00 0.00 35 1016.6
20260508150748 27 31 0.0 0.0 0.00 0.00 0.00 34 1016.6
20260508150248 27 162 0.0 0.0 0.00 0.00 0.00 34 1016.9
20260508145747 27 6 0.0 0.0 0.00 0.00 0.00 36 1016.6
20260508145248 27 35 0.0 0.0 0.00 0.00 0.00 35 1016.9
20260508144747 27 109 0.0 0.0 0.00 0.00 0.00 37 1016.6
20260508144247 27 41 0.0 0.0 0.00 0.00 0.00 38 1016.9